Wind_Speed
42 44 44 43 43 43 44 45 45 44 43 43 43 43 42 42 42 42 43 43 43 43 43 43 44 45 45 46 47 48 48 49 49 50 51 52 54 54 54 54 54 54 53 53
39 41 42 43 43 43 44 44 45 44 44 43 43 43 43 42 42 42 43 43 43 43 44 44 44 45 45 46 47 48 48 49 50 51 52 53 53 53 53 53 53 54 53 52
38 38 40 42 41 42 42 43 43 44 43 44 44 44 44 44 43 43 43 43 43 44 44 45 46 46 46 47 48 48 49 49 50 51 51 52 52 52 53 53 53 53 52 51
36 36 39 40 39 40 40 42 43 44 44 45 45 45 45 45 45 44 44 44 44 44 45 45 46 46 47 48 48 49 49 49 50 50 51 51 51 52 52 52 52 51 49 49
35 37 37 38 38 38 39 40 41 42 43 43 44 45 45 45 45 45 44 44 44 44 45 45 46 46 47 47 48 48 48 49 49 50 50 50 51 51 50 50 50 49 48 49
35 36 36 36 36 37 38 39 40 41 42 42 42 43 43 44 44 44 43 43 43 43 44 44 45 45 46 46 47 47 47 48 48 49 49 49 49 48 48 48 48 47 47 47
34 35 35 34 35 35 37 38 38 39 40 41 41 41 42 42 43 43 43 43 43 43 43 43 44 44 45 46 46 46 46 46 47 47 47 47 47 47 46 46 45 44 44 44
34 34 34 32 34 35 35 36 37 38 39 40 40 40 40 41 42 42 42 43 43 42 42 43 44 44 45 45 45 44 44 45 45 45 45 45 45 45 45 44 43 43 43 43
33 33 32 32 33 34 34 35 35 36 36 37 38 39 39 39 40 40 41 42 42 42 42 43 44 44 44 43 43 43 43 44 44 45 45 45 45 45 44 43 42 42 42 41
29 30 32 32 32 33 33 33 34 34 35 35 36 37 38 38 38 38 39 40 41 42 42 43 43 43 42 42 43 43 43 44 44 45 45 45 45 44 44 43 42 41 40 39
27 28 29 31 31 32 32 32 33 34 34 35 35 36 36 37 37 38 38 39 40 40 41 41 41 41 41 42 42 42 43 43 43 44 44 44 44 43 42 41 40 39 38 37
26 26 27 27 29 29 29 30 30 31 32 33 34 35 35 36 36 37 37 38 38 39 40 40 40 40 41 41 42 42 42 42 42 42 42 42 40 39 38 38 37 37 36 35
26 25 25 25 26 26 27 28 29 30 30 31 33 33 34 35 35 36 37 37 37 38 38 38 39 40 40 41 41 40 41 41 41 40 40 39 37 36 36 36 36 36 35 34
25 25 25 24 24 25 26 27 28 29 30 31 32 33 33 34 34 35 36 36 36 37 37 38 38 38 38 38 39 39 39 39 39 39 38 37 36 35 34 34 34 34 33 31
24 24 24 24 25 26 26 27 27 28 29 30 30 31 31 32 33 34 34 35 35 35 35 36 36 36 37 38 38 38 38 38 37 37 36 35 34 33 33 33 32 32 30 29
24 25 25 25 26 26 27 27 27 28 29 29 29 30 31 32 32 33 33 34 34 34 34 34 34 34 35 36 37 37 37 37 36 35 34 33 33 32 32 31 31 30 29 28
22 22 23 24 25 26 27 27 28 28 28 28 29 29 30 31 31 31 32 32 32 32 32 32 32 33 34 34 35 35 35 34 33 33 32 31 31 30 29 28 27 26 25 24
20 21 22 23 23 24 24 25 25 26 26 27 28 28 29 30 30 30 31 31 31 31 31 32 33 33 33 33 33 33 32 31 30 30 29 29 28 27 26 25 24 23 21 20
19 20 20 21 22 22 22 23 23 24 24 25 25 26 27 27 28 28 29 29 30 31 31 32 32 32 32 31 31 29 28 27 26 26 25 25 24 23 23 22 21 19 18 16
17 18 19 20 21 21 22 21 22 22 22 22 22 23 23 23 24 25 25 26 27 27 28 29 29 29 29 28 27 26 24 23 23 22 22 21 20 19 18 18 17 15 14 12
16 16 17 18 19 20 20 20 20 19 19 20 20 20 21 22 23 23 24 24 25 26 26 26 26 26 25 24 23 23 22 21 21 20 19 18 17 16 16 15 14 12 11 10
15 15 15 16 17 17 18 18 17 17 18 18 18 18 19 20 21 22 22 23 23 24 24 24 24 23 23 22 22 21 20 19 18 18 17 16 15 14 13 12 12 11 10 10
15 15 15 15 15 15 15 15 15 15 15 16 16 17 18 19 20 21 22 22 22 22 22 21 21 21 21 20 19 18 17 16 15 15 14 13 12 12 11 11 10 10 9 9
14 14 14 14 14 13 14 14 14 14 14 15 16 17 18 18 19 20 20 20 20 20 19 19 19 18 17 16 15 14 13 13 12 12 11 10 10 9 9 9 8 8 8 8
13 13 13 12 12 12 13 13 14 14 14 15 15 16 16 17 17 16 16 15 16 16 16 15 15 14 13 12 12 11 11 11 10 9 9 8 8 8 7 8 8 8 8 8
12 12 12 12 12 12 12 13 14 14 14 14 15 15 15 14 13 12 12 12 12 12 12 12 11 10 9 8 8 8 9 9 9 8 8 8 8 8 8 8 8 8 8 9
12 12 12 12 13 13 13 14 14 14 14 14 13 13 12 11 10 10 10 10 10 10 9 8 7 6 5 5 5 5 6 6 6 7 8 8 9 9 9 9 9 9 10 10
Wind_Direction
238 239 238 237 237 237 237 239 241 242 244 248 249 252 254 256 257 258 258 259 260 261 263 264 265 266 268 270 272 273 274 275 276 278 280 282 284 285 287 288 288 289 290 291
239 239 241 240 238 238 239 239 240 241 243 245 249 251 253 254 256 257 258 259 260 261 263 264 265 267 268 270 272 273 274 274 276 278 280 282 284 286 287 288 288 289 289 290
239 239 241 241 239 240 241 241 242 242 242 244 247 250 252 253 255 257 259 260 261 263 264 264 265 267 268 270 271 272 273 274 276 278 281 282 284 286 287 288 289 288 288 289
238 238 240 242 242 242 242 242 242 242 243 245 247 249 252 253 255 256 258 260 262 264 264 265 266 268 269 270 272 273 274 275 277 279 281 283 285 287 287 288 288 288 288 289
236 239 242 242 243 244 244 244 244 244 245 246 247 249 251 253 255 257 260 261 262 264 265 266 267 268 270 271 272 273 274 276 278 279 282 284 286 287 288 288 288 287 287 289
235 238 241 243 244 244 245 245 245 246 246 247 249 250 252 254 256 258 260 262 263 264 266 267 268 269 270 272 273 273 274 276 278 281 283 284 286 287 288 288 287 287 288 289
235 238 242 243 244 244 245 246 246 247 247 248 251 253 254 255 257 259 261 262 264 266 267 268 269 270 271 272 273 274 275 277 279 281 283 284 286 287 287 287 287 287 289 290
237 239 241 243 244 246 248 249 249 249 249 250 251 252 254 256 258 260 262 263 265 265 267 268 269 271 272 273 274 274 275 277 279 281 282 284 286 286 286 286 286 287 289 290
240 241 242 244 245 246 247 249 249 251 251 252 252 254 256 257 259 261 263 264 265 265 267 269 270 271 272 273 273 274 275 277 280 281 283 284 286 286 286 285 286 287 289 290
240 241 242 243 245 246 247 249 250 252 253 253 253 254 256 258 260 261 263 265 265 266 268 269 270 271 272 273 273 275 277 278 280 282 283 284 284 285 285 285 285 286 288 288
240 242 243 243 245 247 248 250 252 253 253 253 254 254 256 258 259 261 263 264 266 267 268 268 269 270 272 273 274 276 278 280 281 282 283 284 284 283 283 284 283 285 286 286
242 243 244 246 247 249 249 250 252 253 254 255 255 256 257 258 260 262 264 265 266 267 267 268 268 270 272 274 276 277 278 280 281 283 284 284 283 282 282 284 284 284 285 285
245 243 244 245 247 249 251 253 254 255 256 258 257 258 260 261 262 264 265 266 266 267 267 268 269 270 273 274 275 277 278 280 281 282 283 283 281 280 281 283 284 284 285 285
246 245 245 245 247 249 252 254 255 257 258 259 260 261 262 263 264 265 265 265 266 268 268 269 269 271 273 274 275 277 279 280 281 282 282 282 281 280 280 281 283 285 284 284
246 246 247 248 249 252 254 256 258 260 261 260 260 261 262 264 266 266 267 267 268 269 270 270 271 272 273 275 276 278 279 280 281 282 282 282 280 279 281 282 283 283 282 282
246 248 249 250 252 254 255 257 259 260 261 261 262 262 263 266 267 268 268 269 270 270 271 272 273 274 276 277 278 280 281 281 281 280 280 280 279 279 280 280 281 281 280 279
247 248 250 252 254 255 256 257 259 260 261 262 263 264 266 267 268 269 270 271 271 272 272 274 275 277 279 280 280 282 282 281 280 279 278 279 278 278 278 278 278 280 278 277
249 250 252 255 257 257 258 259 260 261 262 264 265 266 268 269 269 269 269 270 271 272 273 275 277 279 281 281 282 283 282 280 279 278 278 278 277 276 275 276 277 277 276 274
252 252 255 258 260 261 262 263 264 265 266 266 266 268 269 270 270 270 271 271 272 272 274 276 278 280 281 280 280 280 280 278 277 277 278 278 275 273 273 275 274 272 271 268
255 257 258 260 260 261 263 265 268 270 270 269 269 269 270 271 272 272 273 274 275 275 276 277 278 280 280 279 278 277 277 275 274 275 277 277 274 271 270 270 268 266 263 258
260 260 260 260 261 262 264 267 270 271 271 272 272 273 273 274 275 276 276 278 279 279 280 280 280 280 280 278 276 276 275 273 273 274 275 273 270 266 264 262 259 256 252 246
262 262 263 264 265 265 266 268 269 270 271 272 274 275 276 276 277 277 278 280 281 283 283 283 282 280 279 277 275 273 271 272 272 271 271 268 263 259 255 252 249 245 241 237
263 265 267 267 267 266 266 268 269 272 274 275 277 279 279 279 278 278 280 282 284 285 285 285 283 282 281 279 275 270 268 270 270 268 265 259 253 248 245 242 238 232 230 229
265 266 266 267 266 266 268 271 273 276 278 281 283 284 284 283 282 282 283 284 284 286 286 284 283 282 278 275 271 266 264 266 266 261 255 249 243 239 235 228 222 219 217 215
265 264 264 265 266 268 271 272 276 279 282 285 287 289 289 289 287 287 287 287 286 288 287 286 285 282 276 272 266 260 257 257 256 251 242 233 225 218 210 205 204 203 200 198
262 260 261 264 267 270 273 276 279 282 285 287 289 291 292 291 290 290 292 292 292 293 292 289 285 280 274 269 260 254 251 250 247 238 225 215 206 199 194 190 188 187 186 185
259 260 263 266 269 273 277 281 283 285 286 288 289 289 290 290 290 292 295 298 299 298 297 291 281 272 268 266 254 246 239 237 229 212 201 197 194 189 185 183 181 179 177 173
Height
5547 5552 5557 5563 5568 5572 5577 5582 5587 5593 5596 5600 5602 5605 5608 5611 5614 5617 5620 5622 5625 5627 5628 5629 5630 5631 5631 5631 5630 5629 5628 5627 5625 5624 5621 5619 5616 5613 5609 5606 5602 5598 5594 5590
5538 5543 5547 5552 5557 5562 5567 5572 5577 5581 5586 5589 5592 5595 5598 5601 5604 5606 5609 5611 5613 5615 5617 5618 5618 5618 5619 5618 5618 5617 5616 5614 5613 5611 5609 5606 5603 5600 5596 5592 5589 5585 5581 5578
5530 5534 5537 5542 5549 5553 5558 5563 5567 5571 5576 5579 5582 5585 5588 5591 5593 5596 5598 5600 5602 5604 5605 5606 5606 5606 5606 5606 5605 5604 5603 5602 5600 5598 5595 5592 5590 5587 5583 5579 5576 5572 5568 5565
5521 5526 5529 5537 5540 5544 5548 5552 5556 5560 5564 5568 5572 5574 5577 5580 5583 5585 5587 5589 5591 5592 5593 5593 5594 5594 5594 5593 5592 5591 5590 5588 5587 5585 5582 5579 5577 5573 5570 5566 5563 5559 5556 5553
5514 5517 5521 5527 5531 5535 5539 5543 5546 5550 5554 5557 5561 5563 5567 5569 5572 5574 5576 5578 5579 5580 5581 5581 5581 5581 5581 5581 5579 5578 5577 5576 5574 5571 5569 5566 5564 5560 5557 5554 5550 5547 5544 5541
5506 5510 5514 5519 5523 5526 5530 5533 5537 5540 5544 5547 5550 5553 5557 5558 5560 5562 5564 5566 5567 5568 5569 5569 5569 5569 5568 5568 5567 5566 5564 5563 5561 5558 5556 5553 5551 5548 5544 5541 5538 5535 5532 5529
5498 5501 5505 5510 5514 5517 5522 5525 5528 5531 5533 5537 5540 5543 5546 5547 5549 5551 5553 5554 5555 5556 5557 5557 5557 5556 5556 5555 5554 5553 5551 5550 5548 5546 5543 5541 5538 5535 5532 5529 5527 5524 5522 5518
5491 5495 5501 5503 5506 5510 5512 5515 5518 5521 5524 5527 5529 5532 5534 5536 5538 5539 5541 5542 5543 5544 5544 5544 5544 5544 5544 5543 5541 5540 5539 5538 5536 5534 5531 5529 5526 5524 5521 5518 5516 5513 5511 5508
5485 5490 5492 5494 5497 5500 5503 5506 5508 5511 5514 5516 5519 5521 5524 5525 5527 5528 5529 5530 5531 5532 5532 5532 5532 5532 5531 5530 5529 5528 5527 5526 5524 5522 5519 5516 5514 5512 5509 5507 5505 5502 5500 5497
5477 5481 5484 5487 5489 5492 5494 5497 5499 5502 5504 5507 5509 5511 5513 5514 5516 5517 5518 5519 5520 5520 5521 5520 5520 5519 5519 5518 5517 5516 5515 5514 5512 5510 5507 5505 5502 5500 5498 5496 5494 5491 5489 5487
5470 5473 5476 5479 5481 5484 5486 5489 5491 5493 5495 5497 5499 5501 5502 5504 5505 5506 5507 5508 5508 5508 5509 5508 5508 5508 5507 5506 5505 5504 5503 5502 5500 5497 5495 5493 5490 5488 5486 5484 5482 5480 5479 5476
5464 5467 5469 5472 5474 5476 5478 5480 5482 5484 5486 5488 5489 5491 5492 5493 5494 5495 5496 5496 5497 5497 5497 5497 5496 5496 5495 5494 5493 5492 5491 5490 5488 5486 5483 5481 5479 5478 5475 5474 5471 5469 5468 5466
5457 5459 5462 5464 5466 5468 5470 5472 5474 5476 5477 5479 5480 5481 5483 5483 5484 5485 5485 5485 5486 5486 5485 5485 5485 5484 5483 5482 5481 5480 5479 5478 5476 5474 5472 5470 5468 5467 5466 5464 5462 5460 5458 5456
5451 5453 5455 5457 5459 5461 5463 5464 5466 5467 5468 5470 5471 5472 5473 5473 5474 5474 5475 5475 5475 5475 5474 5474 5474 5473 5472 5471 5470 5469 5467 5466 5464 5463 5461 5459 5458 5457 5456 5455 5453 5451 5449 5447
5445 5447 5449 5450 5452 5454 5455 5457 5458 5459 5460 5461 5461 5462 5463 5463 5464 5464 5464 5464 5464 5464 5464 5463 5463 5462 5461 5460 5459 5457 5456 5455 5453 5452 5450 5449 5448 5447 5446 5445 5444 5442 5441 5439
5439 5440 5442 5444 5445 5446 5448 5449 5450 5450 5451 5452 5453 5453 5453 5454 5454 5454 5454 5454 5454 5454 5453 5453 5452 5451 5450 5449 5447 5446 5445 5444 5442 5441 5440 5439 5438 5437 5436 5435 5434 5433 5433 5432
5433 5434 5436 5437 5438 5439 5440 5441 5442 5442 5443 5443 5444 5444 5444 5444 5444 5444 5444 5444 5444 5443 5443 5442 5442 5440 5439 5438 5437 5436 5434 5433 5431 5431 5430 5429 5428 5428 5427 5426 5426 5425 5424 5424
5426 5428 5429 5430 5431 5432 5433 5433 5434 5434 5434 5435 5435 5435 5435 5435 5435 5435 5435 5434 5434 5434 5433 5433 5432 5431 5429 5428 5427 5425 5424 5423 5422 5421 5421 5420 5419 5419 5419 5418 5418 5418 5417 5417
5421 5422 5423 5423 5424 5425 5425 5426 5426 5426 5426 5426 5426 5426 5426 5426 5426 5426 5426 5425 5425 5424 5424 5423 5422 5421 5419 5418 5417 5416 5415 5414 5414 5413 5412 5412 5411 5411 5411 5411 5411 5411 5412 5412
5415 5416 5417 5417 5418 5418 5419 5419 5419 5419 5419 5418 5419 5418 5418 5418 5418 5417 5417 5416 5416 5415 5414 5413 5412 5411 5410 5409 5408 5407 5406 5406 5406 5405 5405 5404 5404 5404 5404 5405 5405 5406 5407 5407
5410 5411 5411 5411 5412 5412 5412 5412 5412 5412 5412 5412 5411 5411 5411 5411 5410 5410 5409 5409 5408 5406 5405 5404 5403 5402 5401 5400 5399 5399 5399 5398 5398 5398 5398 5398 5398 5398 5399 5399 5400 5401 5402 5403
5405 5405 5406 5406 5406 5406 5406 5406 5406 5406 5406 5405 5405 5404 5404 5403 5403 5402 5401 5400 5399 5398 5397 5396 5395 5394 5393 5392 5392 5392 5391 5392 5392 5391 5392 5392 5392 5393 5394 5395 5396 5397 5399 5400
5400 5400 5400 5400 5401 5401 5401 5401 5400 5400 5400 5399 5399 5398 5397 5396 5395 5395 5394 5393 5391 5390 5389 5388 5387 5386 5385 5385 5385 5385 5385 5385 5386 5386 5386 5387 5388 5389 5390 5391 5393 5394 5396 5397
5396 5396 5396 5396 5396 5396 5396 5396 5396 5395 5395 5394 5393 5392 5391 5390 5389 5387 5386 5385 5384 5383 5382 5381 5380 5379 5379 5378 5379 5379 5380 5380 5380 5381 5382 5383 5384 5385 5387 5388 5390 5392 5394 5395
5391 5391 5391 5391 5392 5392 5392 5391 5391 5391 5390 5389 5388 5387 5385 5384 5383 5382 5380 5379 5378 5377 5377 5375 5374 5374 5373 5373 5374 5374 5375 5376 5376 5377 5378 5379 5381 5383 5384 5386 5388 5390 5392 5394
5387 5387 5388 5388 5388 5388 5387 5387 5386 5386 5385 5384 5383 5382 5380 5379 5378 5377 5376 5375 5374 5373 5372 5371 5370 5370 5370 5370 5370 5371 5371 5372 5373 5374 5375 5377 5379 5381 5383 5385 5387 5389 5391 5393
5384 5384 5384 5384 5384 5384 5383 5382 5382 5381 5380 5379 5378 5377 5376 5375 5374 5373 5373 5372 5371 5370 5369 5368 5367 5367 5367 5368 5368 5368 5369 5370 5370 5372 5373 5375 5377 5380 5382 5384 5387 5389 5391 5393